[[{"header":{"parameterUnit":"m.s-1","parameterCategory":2,"la1":30.2992,"la2":30.254,"lo1":-89.0895,"lo2":-89.0443,"dy":0.0025,"dx":0.0025,"nx":19,"ny":19,"refTime":"2026-03-21T21:00:00:Z","depth":"0","parameterNumber":2,"parameterNumberName":"U-component_of_CURRENTS"},"data":[0,0,0,-0.131,-0.1308,-0.1176,-0.1175,-0.098,-0.0978,0,0,0,0,0,0,0,0,0,0,0,-0.1344,-0.1343,-0.131,-0.1307,-0.1176,-0.1175,-0.098,-0.0978,0,0,0,0,0,0,0,0,0,0,0,-0.1344,-0.1343,-0.1342,-0.1307,-0.1176,-0.1175,-0.0981,-0.1083,0,0,0,0,0,0,0,0,0,0,-0.1213,-0.1254,-0.1343,-0.1342,-0.1306,-0.1176,-0.1175,-0.1088,-0.1077,-0.1037,0,-0.1014,0,-0.1002,-0.0966,-0.0966,0,0,0,-0.1293,-0.1263,-0.1231,-0.1342,-0.1305,-0.1176,-0.1231,-0.1082,-0.1069,-0.1022,-0.1011,-0.1005,-0.0998,-0.0965,-0.0964,-0.0817,-0.0817,0,0,-0.13,-0.1314,-0.124,-0.1223,-0.1267,-0.1235,-0.1227,-0.1074,-0.1056,-0.1011,-0.1,-0.0995,-0.0964,-0.0962,-0.0817,-0.0817,0,0,0,-0.1331,-0.1319,-0.1291,-0.1231,-0.1214,-0.1232,-0.1222,-0.1062,-0.1054,-0.0998,-0.0993,-0.0963,-0.096,-0.0818,-0.0817,-0.076,0,0,0,-0.1334,-0.1338,-0.1294,-0.13,-0.1218,-0.1141,-0.1214,-0.1064,-0.1047,-0.0994,-0.0963,-0.0959,-0.0818,-0.0817,-0.0762,-0.0542,0,0,0,-0.135,-0.134,-0.1324,-0.1301,-0.1253,-0.1144,-0.1125,-0.106,-0.1044,-0.0965,-0.0958,-0.0818,-0.0818,-0.0764,-0.0552,-0.0182,0,0,0,-0.1369,-0.133,-0.1324,-0.1284,-0.1254,-0.1171,-0.1126,-0.1061,-0.0998,-0.0962,-0.0818,-0.0817,-0.0765,-0.0558,-0.0193,0.0108,0.0183,0,0,-0.1332,-0.1326,-0.1306,-0.1298,-0.1213,-0.1188,-0.1083,-0.0995,-0.0974,-0.0864,-0.086,-0.0761,-0.0553,-0.0184,0.0138,0.0215,0,0,0,-0.1304,-0.1274,-0.125,-0.1203,-0.1158,-0.1031,-0.1005,-0.0959,-0.0861,-0.0936,-0.0766,-0.0631,-0.0401,-0.0248,-0.0189,-0.0068,-0.0815,-0.0815,-0.0815,-0.1249,-0.1234,-0.1146,-0.1098,-0.1034,-0.094,-0.0815,-0.0742,-0.0821,-0.0782,-0.0599,-0.0275,-0.0129,-0.0076,0.0036,-0.0717,-0.0717,-0.0716,-0.0716,-0.1146,-0.1053,-0.1024,-0.0931,-0.0831,-0.0738,-0.0584,-0.0594,-0.0307,-0.0524,-0.0308,-0.0214,-0.0005,0.009,-0.0713,-0.0713,-0.0714,-0.0714,-0.0714,-0.1066,-0.099,-0.0973,-0.0797,-0.0622,-0.0528,-0.0186,-0.0144,-0.0095,0.0079,0.0419,0.042,0.0547,0.0207,0.0209,0.0212,0.0214,0.0216,0.0217,-0.0939,-0.0901,-0.0742,-0.06,-0.0443,-0.0183,0.0109,0.0348,0.0683,0.0701,0.0703,0.0701,0.0015,0.0027,0.0256,0.0249,0.0244,0.0241,0.0238,-0.0654,-0.0702,-0.0455,-0.0304,0.0058,0.0399,0.0582,0.1142,0.1426,0.1678,0.1581,0.1066,0.1178,0.1127,0.1169,0.1684,0.1684,0.1684,0.1684,-0.0442,-0.0456,-0.0099,0.0191,0.0526,0.0732,0.1314,0.1669,0.2073,0.2278,0.2234,0.1955,0.1891,0.2023,0.1953,0.2002,0.2716,0.2717,0.2718,-0.0136,-0.0117,0.0225,0.0406,0.0757,0.1108,0.1596,0.1973,0.2521,0.2755,0.2362,0.2318,0.1871,0.1761,0.1908,0.18,0.1855,0,0]},{"header":{"parameterUnit":"m.s-1","parameterCategory":2,"la1":30.2992,"la2":30.254,"lo1":-89.0895,"lo2":-89.0443,"dy":0.0025,"dx":0.0025,"nx":19,"ny":19,"refTime":"2026-03-21T21:00:00:Z","depth":"0","parameterNumber":3,"parameterNumberName":"V-component_of_CURRENTS"},"data":[0,0,0,-0.0365,-0.0364,-0.03,-0.0299,-0.0193,-0.0192,0,0,0,0,0,0,0,0,0,0,0,-0.0393,-0.0393,-0.0365,-0.0363,-0.03,-0.0299,-0.0194,-0.0192,0,0,0,0,0,0,0,0,0,0,0,-0.0393,-0.0393,-0.0393,-0.0363,-0.03,-0.0299,-0.0194,-0.0247,0,0,0,0,0,0,0,0,0,0,-0.0311,-0.0352,-0.0393,-0.0393,-0.0363,-0.03,-0.0299,-0.0249,-0.0243,-0.0217,0,-0.0216,0,-0.02,-0.0185,-0.0185,0,0,0,-0.0357,-0.0358,-0.0331,-0.0393,-0.0362,-0.03,-0.0327,-0.0246,-0.0239,-0.0209,-0.0214,-0.021,-0.0199,-0.0185,-0.0184,-0.0156,-0.0157,0,0,-0.0361,-0.0387,-0.0336,-0.0327,-0.0356,-0.0329,-0.0325,-0.0242,-0.0244,-0.0214,-0.0208,-0.0197,-0.0184,-0.0183,-0.0156,-0.0157,0,0,0,-0.0375,-0.0389,-0.0365,-0.0331,-0.0321,-0.0327,-0.0323,-0.0248,-0.0238,-0.0206,-0.0196,-0.0183,-0.0182,-0.0155,-0.0156,-0.0123,0,0,0,-0.0377,-0.0397,-0.0367,-0.0382,-0.0323,-0.0289,-0.0331,-0.0244,-0.0234,-0.0196,-0.0183,-0.0181,-0.0155,-0.0156,-0.0122,0.0017,0,0,0,-0.0394,-0.0399,-0.0393,-0.0383,-0.0356,-0.029,-0.0275,-0.0241,-0.0227,-0.0185,-0.0181,-0.0155,-0.0156,-0.0122,0.0013,0.0234,0,0,0,-0.042,-0.0464,-0.0394,-0.044,-0.0357,-0.0357,-0.0276,-0.0275,-0.0252,-0.0183,-0.0155,-0.0156,-0.0122,0.001,0.0228,0.0499,0.0547,0,0,-0.0499,-0.0474,-0.0503,-0.044,-0.0441,-0.0365,-0.0345,-0.028,-0.0255,-0.0178,-0.0177,-0.0123,0.0013,0.0233,0.043,0.0482,0,0,0,-0.0544,-0.0543,-0.0542,-0.0515,-0.049,-0.0363,-0.034,-0.0297,-0.0224,-0.0244,-0.0156,-0.0069,0.0069,0.0216,0.0255,0.0293,-0.0162,-0.0161,-0.0161,-0.0647,-0.0609,-0.0583,-0.051,-0.0483,-0.0385,-0.0287,-0.021,-0.0254,-0.0228,-0.0074,0.0088,0.0232,0.0269,0.0297,-0.0175,-0.0175,-0.0175,-0.0175,-0.0655,-0.0578,-0.0507,-0.0456,-0.033,-0.0279,-0.0148,-0.0138,0.0051,-0.0069,0.0062,0.0203,0.0317,0.033,-0.0173,-0.0174,-0.0174,-0.0174,-0.0174,-0.0638,-0.0564,-0.0529,-0.0354,-0.0198,-0.0103,0.0171,0.0187,0.0188,0.0292,0.056,0.0561,0.0622,0.037,0.0371,0.0373,0.0374,0.0375,0.0376,-0.0566,-0.0513,-0.0351,-0.02,-0.0046,0.0185,0.0398,0.0559,0.0747,0.0734,0.0735,0.0694,0.026,0.0294,0.0399,0.0395,0.0392,0.039,0.0388,-0.0386,-0.0376,-0.0135,0.0025,0.0382,0.0685,0.0804,0.1189,0.1335,0.1487,0.1303,0.099,0.1071,0.1038,0.1091,0.1399,0.1399,0.1399,0.1399,-0.0219,-0.0214,0.0172,0.0464,0.0779,0.0973,0.1438,0.1691,0.1827,0.1861,0.173,0.1575,0.1533,0.1626,0.158,0.1638,0.2077,0.2078,0.2078,0.004,0.0094,0.0431,0.0652,0.0989,0.1299,0.1701,0.2045,0.2185,0.2094,0.1734,0.1705,0.1443,0.1373,0.1475,0.1408,0.1484,0,0]}],[{"header":{"parameterUnit":"m.s-1","parameterCategory":2,"la1":30.2992,"la2":30.254,"lo1":-89.0895,"lo2":-89.0443,"dy":0.0025,"dx":0.0025,"nx":19,"ny":19,"refTime":"2026-03-21T21:00:00:Z","depth":"2","parameterNumber":2,"parameterNumberName":"U-component_of_CURRENTS"},"data":[0,0,0,-0.0946,-0.0947,-0.0984,-0.0984,-0.1014,-0.1015,0,0,0,0,0,0,0,0,0,0,0,-0.0928,-0.0928,-0.0946,-0.0947,-0.0984,-0.0984,-0.1014,-0.1015,0,0,0,0,0,0,0,0,0,0,0,-0.0928,-0.0928,-0.0928,-0.0947,-0.0984,-0.0984,-0.1014,-0.0991,0,0,0,0,0,0,0,0,0,0,-0.0957,-0.0942,-0.0928,-0.0928,-0.0948,-0.0984,-0.0984,-0.099,-0.0992,-0.0993,0,-0.0996,0,-0.1008,-0.1016,-0.1016,0,0,0,-0.0947,-0.094,-0.0952,-0.0928,-0.0948,-0.0984,-0.0967,-0.0991,-0.0994,-0.0996,-0.0997,-0.0998,-0.1009,-0.1016,-0.1017,-0.1049,-0.1049,0,0,-0.0945,-0.0934,-0.095,-0.0953,-0.0954,-0.0966,-0.0968,-0.0993,-0.0993,-0.0997,-0.0999,-0.1009,-0.1017,-0.1017,-0.1049,-0.1049,0,0,0,-0.0939,-0.0932,-0.0944,-0.0952,-0.0961,-0.0967,-0.097,-0.0992,-0.0996,-0.1,-0.101,-0.1017,-0.1017,-0.1049,-0.1049,-0.104,0,0,0,-0.0938,-0.093,-0.0943,-0.0937,-0.0961,-0.0979,-0.0968,-0.0994,-0.0997,-0.101,-0.1017,-0.1017,-0.1049,-0.1049,-0.1039,-0.1021,0,0,0,-0.0927,-0.0929,-0.0932,-0.0936,-0.0953,-0.0979,-0.0985,-0.0995,-0.1004,-0.1016,-0.1017,-0.1048,-0.1049,-0.1039,-0.1022,-0.0978,0,0,0,-0.0916,-0.0935,-0.0932,-0.0959,-0.0953,-0.0994,-0.0985,-0.1014,-0.1028,-0.1017,-0.1049,-0.1049,-0.1039,-0.1022,-0.0979,-0.078,-0.076,0,0,-0.0939,-0.0938,-0.0957,-0.0955,-0.0989,-0.0989,-0.1021,-0.1031,-0.1032,-0.1039,-0.104,-0.1039,-0.1022,-0.0978,-0.0804,-0.0782,0,0,0,-0.0965,-0.0968,-0.0982,-0.0996,-0.1024,-0.1023,-0.1045,-0.1044,-0.1046,-0.1042,-0.105,-0.1039,-0.1012,-0.0895,-0.0878,-0.1051,-0.1051,-0.1051,-0.1051,-0.0962,-0.098,-0.0997,-0.1014,-0.1035,-0.1052,-0.1049,-0.1047,-0.1064,-0.106,-0.104,-0.1012,-0.0889,-0.0874,-0.1058,-0.1058,-0.1058,-0.1058,-0.1058,-0.0964,-0.0954,-0.098,-0.0997,-0.1006,-0.1023,-0.1037,-0.104,-0.1021,-0.1045,-0.1019,-0.0902,-0.0854,-0.1057,-0.1057,-0.1057,-0.1058,-0.1058,-0.1058,-0.0927,-0.0919,-0.0938,-0.0941,-0.0952,-0.0981,-0.0966,-0.0992,-0.0993,-0.0977,-0.0828,-0.0826,-0.0978,-0.0961,-0.0961,-0.0961,-0.0961,-0.0961,-0.096,-0.0856,-0.0878,-0.0853,-0.0874,-0.0873,-0.0896,-0.092,-0.0897,-0.0818,-0.0788,-0.0786,-0.0979,-0.0982,-0.0972,-0.0956,-0.0957,-0.0958,-0.0958,-0.0958,-0.0771,-0.0777,-0.0742,-0.0735,-0.0753,-0.0729,-0.0791,-0.0646,-0.0616,-0.0509,-0.0663,-0.0672,-0.0645,-0.0656,-0.0638,-0.0537,-0.0537,-0.0537,-0.0537,-0.069,-0.0698,-0.0624,-0.06,-0.0613,-0.0643,-0.0472,-0.0366,-0.0327,-0.0344,-0.0353,-0.0345,-0.0364,-0.0323,-0.0342,-0.032,-0.0136,-0.0136,-0.0135,-0.061,-0.0604,-0.0526,-0.0517,-0.0532,-0.053,-0.0297,-0.0011,0.0027,-0.0131,-0.0399,-0.0487,-0.0498,-0.0519,-0.0479,-0.0501,-0.0474,0,0]},{"header":{"parameterUnit":"m.s-1","parameterCategory":2,"la1":30.2992,"la2":30.254,"lo1":-89.0895,"lo2":-89.0443,"dy":0.0025,"dx":0.0025,"nx":19,"ny":19,"refTime":"2026-03-21T21:00:00:Z","depth":"2","parameterNumber":3,"parameterNumberName":"V-component_of_CURRENTS"},"data":[0,0,0,-0.0364,-0.0363,-0.0316,-0.0316,-0.024,-0.024,0,0,0,0,0,0,0,0,0,0,0,-0.038,-0.038,-0.0364,-0.0363,-0.0316,-0.0316,-0.024,-0.024,0,0,0,0,0,0,0,0,0,0,0,-0.038,-0.038,-0.038,-0.0363,-0.0316,-0.0316,-0.0241,-0.0278,0,0,0,0,0,0,0,0,0,0,-0.0325,-0.0346,-0.038,-0.038,-0.0362,-0.0316,-0.0316,-0.028,-0.0276,-0.0259,0,-0.0255,0,-0.0248,-0.0235,-0.0235,0,0,0,-0.0357,-0.035,-0.0337,-0.038,-0.0362,-0.0316,-0.0336,-0.0278,-0.0273,-0.0253,-0.0254,-0.0251,-0.0246,-0.0234,-0.0234,-0.0172,-0.0172,0,0,-0.0359,-0.037,-0.034,-0.0334,-0.0354,-0.0337,-0.0334,-0.0275,-0.0272,-0.0254,-0.025,-0.0245,-0.0234,-0.0233,-0.0172,-0.0172,0,0,0,-0.0371,-0.0371,-0.036,-0.0337,-0.0331,-0.0336,-0.0333,-0.0274,-0.0271,-0.0249,-0.0244,-0.0233,-0.0233,-0.0173,-0.0172,-0.0218,0,0,0,-0.0372,-0.0378,-0.0361,-0.0367,-0.0332,-0.0304,-0.0333,-0.0275,-0.0268,-0.0245,-0.0233,-0.0232,-0.0173,-0.0173,-0.0217,-0.0253,0,0,0,-0.0382,-0.0379,-0.0375,-0.0367,-0.035,-0.0305,-0.0298,-0.0273,-0.0265,-0.0234,-0.0232,-0.0173,-0.0173,-0.0216,-0.0251,-0.0229,0,0,0,-0.0391,-0.0393,-0.0376,-0.0375,-0.035,-0.0327,-0.0298,-0.0275,-0.0252,-0.0233,-0.0173,-0.0172,-0.0216,-0.0249,-0.0228,-0.0165,-0.0163,0,0,-0.0401,-0.0394,-0.0394,-0.0377,-0.0368,-0.0333,-0.0316,-0.0275,-0.0239,-0.019,-0.0189,-0.0217,-0.0251,-0.0228,-0.0147,-0.0146,0,0,0,-0.0401,-0.0404,-0.0397,-0.0388,-0.0362,-0.0345,-0.03,-0.0275,-0.0232,-0.0225,-0.0198,-0.0218,-0.0202,-0.0162,-0.0161,-0.0171,-0.0171,-0.0171,-0.0171,-0.0431,-0.0419,-0.0424,-0.0408,-0.0391,-0.0347,-0.0328,-0.0282,-0.0244,-0.0229,-0.024,-0.0237,-0.0194,-0.0193,-0.0213,-0.0213,-0.0213,-0.0213,-0.0213,-0.0463,-0.0473,-0.0456,-0.046,-0.0433,-0.0415,-0.0356,-0.0326,-0.0279,-0.0257,-0.0238,-0.0194,-0.0194,-0.0217,-0.0216,-0.0216,-0.0215,-0.0215,-0.0215,-0.0495,-0.05,-0.0502,-0.0511,-0.0505,-0.0467,-0.044,-0.0402,-0.0328,-0.032,-0.023,-0.0228,-0.0267,-0.0292,-0.0292,-0.0292,-0.0292,-0.0292,-0.0292,-0.0531,-0.0533,-0.056,-0.0565,-0.0576,-0.0567,-0.0495,-0.0442,-0.0341,-0.0278,-0.0276,-0.0263,-0.026,-0.027,-0.0293,-0.0293,-0.0293,-0.0293,-0.0293,-0.058,-0.0578,-0.062,-0.0641,-0.0656,-0.0619,-0.0552,-0.0382,-0.0315,-0.0244,-0.0231,-0.0232,-0.0206,-0.0205,-0.0212,-0.0219,-0.0219,-0.0219,-0.0219,-0.0615,-0.0616,-0.0673,-0.0711,-0.0722,-0.0649,-0.0465,-0.0299,-0.0198,-0.017,-0.0173,-0.0148,-0.0151,-0.0122,-0.0122,-0.0127,-0.0112,-0.0112,-0.0112,-0.0657,-0.0665,-0.0715,-0.0738,-0.0753,-0.064,-0.0413,-0.0148,-0.0046,-0.0112,-0.0191,-0.0204,-0.0173,-0.0177,-0.0133,-0.0134,-0.0141,0,0]}],[{"header":{"parameterUnit":"m.s-1","parameterCategory":2,"la1":30.2992,"la2":30.254,"lo1":-89.0895,"lo2":-89.0443,"dy":0.0025,"dx":0.0025,"nx":19,"ny":19,"refTime":"2026-03-21T21:00:00:Z","depth":"4","parameterNumber":2,"parameterNumberName":"U-component_of_CURRENTS"},"data":[0,0,0,-0.0732,-0.0734,-0.081,-0.081,-0.0873,-0.0874,0,0,0,0,0,0,0,0,0,0,0,-0.0706,-0.0706,-0.0732,-0.0734,-0.081,-0.081,-0.0873,-0.0874,0,0,0,0,0,0,0,0,0,0,0,-0.0706,-0.0706,-0.0707,-0.0734,-0.081,-0.081,-0.0873,-0.0825,0,0,0,0,0,0,0,0,0,0,-0.0756,-0.0737,-0.0706,-0.0707,-0.0735,-0.081,-0.081,-0.0823,-0.0828,-0.0828,0,-0.0841,0,-0.0857,-0.0877,-0.0877,0,0,0,-0.0737,-0.0733,-0.0751,-0.0707,-0.0735,-0.081,-0.0777,-0.0826,-0.0832,-0.0835,-0.0842,-0.0844,-0.0858,-0.0877,-0.0878,-0.0918,-0.0918,0,0,-0.0733,-0.0722,-0.0747,-0.0755,-0.0755,-0.0774,-0.0779,-0.083,-0.0836,-0.0842,-0.0846,-0.0859,-0.0878,-0.0878,-0.0917,-0.0918,0,0,0,-0.0719,-0.0719,-0.0737,-0.0752,-0.0767,-0.0776,-0.0782,-0.0834,-0.0839,-0.0847,-0.086,-0.0878,-0.0879,-0.0917,-0.0918,-0.091,0,0,0,-0.0717,-0.071,-0.0735,-0.0729,-0.0766,-0.0807,-0.0784,-0.0836,-0.0842,-0.086,-0.0878,-0.0879,-0.0917,-0.0917,-0.091,-0.0893,0,0,0,-0.0702,-0.0709,-0.0717,-0.0728,-0.076,-0.0806,-0.0815,-0.0838,-0.085,-0.0877,-0.0879,-0.0917,-0.0917,-0.091,-0.0894,-0.0848,0,0,0,-0.0689,-0.0708,-0.0717,-0.0745,-0.0759,-0.0808,-0.0815,-0.0858,-0.0883,-0.0878,-0.0917,-0.0917,-0.091,-0.0894,-0.0849,-0.0732,0,0,0,-0.0705,-0.071,-0.0727,-0.0737,-0.0776,-0.0797,-0.0837,-0.0873,-0.0883,-0.0898,-0.09,-0.091,-0.0894,-0.0849,-0.0746,0,0,0,0,-0.0727,-0.0735,-0.0751,-0.0776,-0.081,-0.0832,-0.0872,-0.0881,-0.0901,-0.0898,-0.0916,-0.0906,-0.0877,-0.0813,-0.0918,-0.0918,-0.0918,-0.0918,-0.0918,-0.0729,-0.0747,-0.0769,-0.0793,-0.0822,-0.0862,-0.0874,-0.089,-0.091,-0.0915,-0.0905,-0.0872,-0.0807,-0.0919,-0.0919,-0.0919,-0.0919,-0.0919,-0.0919,-0.0734,-0.0732,-0.0765,-0.079,-0.0815,-0.0846,-0.0874,-0.0885,-0.0877,-0.0904,-0.0876,-0.0818,-0.0918,-0.0918,-0.0918,-0.0918,-0.0918,-0.0919,-0.0919,-0.0711,-0.0707,-0.0734,-0.0753,-0.0783,-0.0822,-0.0806,-0.0838,-0.0854,-0.0841,-0.0747,-0.0851,-0.0842,-0.0822,-0.0822,-0.0821,-0.0821,-0.0821,-0.0821,-0.0657,-0.0682,-0.0673,-0.0707,-0.0714,-0.0729,-0.0757,-0.0738,-0.0764,-0.0711,-0.0827,-0.0839,-0.0842,-0.0836,-0.0817,-0.0818,-0.0818,-0.0818,-0.0819,-0.0596,-0.0603,-0.0583,-0.0584,-0.0588,-0.0599,-0.0649,-0.0602,-0.0561,-0.0521,-0.063,-0.0641,-0.0621,-0.0629,-0.0615,-0.0529,-0.0528,-0.0526,0,-0.0534,-0.0542,-0.0487,-0.0458,-0.0435,-0.0504,-0.0435,-0.0439,-0.046,-0.0448,-0.0561,-0.0687,-0.0694,-0.0676,-0.068,-0.0665,0,0,0,-0.0475,-0.047,-0.0405,-0.0385,-0.0357,-0.0361,-0.0411,-0.0373,-0.0481,-0.0399,-0.0485,-0.0496,-0.0684,-0.0805,-0.0798,-0.0802,-0.0792,0,0]},{"header":{"parameterUnit":"m.s-1","parameterCategory":2,"la1":30.2992,"la2":30.254,"lo1":-89.0895,"lo2":-89.0443,"dy":0.0025,"dx":0.0025,"nx":19,"ny":19,"refTime":"2026-03-21T21:00:00:Z","depth":"4","parameterNumber":3,"parameterNumberName":"V-component_of_CURRENTS"},"data":[0,0,0,-0.0266,-0.0266,-0.0248,-0.0248,-0.0191,-0.019,0,0,0,0,0,0,0,0,0,0,0,-0.0273,-0.0273,-0.0266,-0.0266,-0.0248,-0.0248,-0.0191,-0.019,0,0,0,0,0,0,0,0,0,0,0,-0.0273,-0.0273,-0.0273,-0.0266,-0.0248,-0.0248,-0.0191,-0.0212,0,0,0,0,0,0,0,0,0,0,-0.0233,-0.0247,-0.0273,-0.0273,-0.0266,-0.0248,-0.0248,-0.0213,-0.021,-0.019,0,-0.0193,0,-0.0191,-0.0186,-0.0186,0,0,0,-0.0261,-0.0249,-0.0244,-0.0273,-0.0266,-0.0248,-0.0255,-0.0212,-0.0209,-0.0187,-0.0192,-0.019,-0.019,-0.0186,-0.0185,-0.012,-0.0119,0,0,-0.0262,-0.0267,-0.0247,-0.0243,-0.0266,-0.0255,-0.0254,-0.021,-0.0209,-0.0192,-0.0189,-0.0189,-0.0185,-0.0185,-0.012,-0.0119,0,0,0,-0.0268,-0.0268,-0.0265,-0.0245,-0.0245,-0.0255,-0.0254,-0.0211,-0.021,-0.0188,-0.0188,-0.0185,-0.0184,-0.012,-0.012,-0.0163,0,0,0,-0.0268,-0.0272,-0.0265,-0.0268,-0.0246,-0.0232,-0.0255,-0.0213,-0.0208,-0.0188,-0.0185,-0.0183,-0.012,-0.012,-0.0162,-0.0201,0,0,0,-0.0273,-0.0272,-0.0272,-0.0269,-0.0263,-0.0233,-0.023,-0.0212,-0.0208,-0.0186,-0.0183,-0.0121,-0.012,-0.0162,-0.0199,-0.0206,0,0,0,-0.0276,-0.0273,-0.0273,-0.0267,-0.0263,-0.0242,-0.023,-0.0211,-0.0193,-0.0185,-0.012,-0.012,-0.0161,-0.0198,-0.0204,-0.018,0,0,0,-0.0273,-0.0273,-0.0268,-0.0267,-0.0259,-0.0244,-0.0229,-0.0204,-0.0175,-0.0132,-0.0131,-0.0162,-0.0199,-0.0205,-0.0143,0,0,0,0,-0.0267,-0.0272,-0.0266,-0.0264,-0.0245,-0.0247,-0.0214,-0.0196,-0.0166,-0.0163,-0.0138,-0.0159,-0.0162,-0.0143,-0.0117,-0.0117,-0.0117,-0.0117,-0.0117,-0.0285,-0.0277,-0.0284,-0.0278,-0.0265,-0.0241,-0.0234,-0.0203,-0.0165,-0.0154,-0.0175,-0.0187,-0.0165,-0.0142,-0.0142,-0.0142,-0.0142,-0.0142,-0.0142,-0.0311,-0.0326,-0.0321,-0.0328,-0.0319,-0.0308,-0.0265,-0.0243,-0.0215,-0.0184,-0.0184,-0.0166,-0.0146,-0.0145,-0.0145,-0.0144,-0.0144,-0.0144,-0.0144,-0.0345,-0.0354,-0.0363,-0.0386,-0.0396,-0.0369,-0.0368,-0.0327,-0.0269,-0.0271,-0.0226,-0.0214,-0.0232,-0.0259,-0.0259,-0.0259,-0.026,-0.026,-0.026,-0.0383,-0.0392,-0.0427,-0.0447,-0.0466,-0.0471,-0.0429,-0.0397,-0.0338,-0.0282,-0.0282,-0.0226,-0.0222,-0.0238,-0.0263,-0.0262,-0.0262,-0.0262,-0.0261,-0.0436,-0.0437,-0.0488,-0.0516,-0.0547,-0.0538,-0.0505,-0.0408,-0.0374,-0.0322,-0.0274,-0.0273,-0.0257,-0.0253,-0.0269,-0.0305,-0.0305,-0.0304,0,-0.0473,-0.0476,-0.0542,-0.0585,-0.06,-0.0575,-0.05,-0.0442,-0.0366,-0.036,-0.039,-0.0341,-0.0337,-0.0325,-0.0321,-0.0342,0,0,0,-0.0518,-0.0527,-0.0581,-0.0609,-0.062,-0.0529,-0.0476,-0.0434,-0.0378,-0.0315,-0.03,-0.0301,-0.0293,-0.0272,-0.0245,-0.024,-0.0264,0,0]}]]